Time,TemperatureF,DewpointF,PressureIn,WindDirection,WindDirectionDegrees,WindSpeedMPH,WindSpeedGustMPH,Humidity,HourlyPrecipIn,Conditions,Clouds,dailyrainin,SoftwareType,DateUTC
2013-07-17 00:00:00,77.0,64.8,30.29,South,176,0.0,0.0,66,0.00,,SKC,0.00,VWS V14.01,2013-07-17 05:00:00,
2013-07-17 00:01:00,77.0,64.8,30.29,South,176,0.0,0.0,66,0.00,,SKC,0.00,VWS V14.01,2013-07-17 05:01:00,
2013-07-17 00:02:00,77.0,64.8,30.29,South,176,0.0,0.0,66,0.00,,SKC,0.00,VWS V14.01,2013-07-17 05:02:00,
2013-07-17 00:03:00,77.0,64.8,30.29,South,176,0.0,0.0,66,0.00,,SKC,0.00,VWS V14.01,2013-07-17 05:03:00,
2013-07-17 00:04:00,76.8,64.6,30.29,South,176,0.0,0.0,66,0.00,,SKC,0.00,VWS V14.01,2013-07-17 05:04:00,
2013-07-17 00:05:00,77.2,65.4,30.29,South,176,0.0,0.0,67,0.00,,SKC,0.00,VWS V14.01,2013-07-17 05:05:00,
2013-07-17 00:06:00,76.8,65.0,30.29,South,176,0.0,0.0,67,0.00,,SKC,0.00,VWS V14.01,2013-07-17 05:06:00,
2013-07-17 00:07:00,76.8,65.0,30.29,South,176,0.0,0.0,67,0.00,,SKC,0.00,VWS V14.01,2013-07-17 05:07:00,
2013-07-17 00:08:00,76.8,65.5,30.29,South,176,0.0,0.0,68,0.00,,SKC,0.00,VWS V14.01,2013-07-17 05:08:00,
2013-07-17 00:09:00,76.8,65.5,30.29,South,176,0.0,0.0,68,0.00,,SKC,0.00,VWS V14.01,2013-07-17 05:09:00,
2013-07-17 00:10:00,76.6,64.9,30.29,South,176,0.0,0.0,67,0.00,,SKC,0.00,VWS V14.01,2013-07-17 05:10:00,
2013-07-17 00:11:00,76.6,64.9,30.29,South,176,0.0,0.0,67,0.00,,SKC,0.00,VWS V14.01,2013-07-17 05:11:00,
2013-07-17 00:12:00,76.6,64.9,30.29,South,177,0.0,0.0,67,0.00,,SKC,0.00,VWS V14.01,2013-07-17 05:12:00,
2013-07-17 00:13:00,76.6,65.3,30.29,South,180,0.0,0.0,68,0.00,,SKC,0.00,VWS V14.01,2013-07-17 05:13:00,
2013-07-17 00:14:00,76.6,65.3,30.29,South,180,0.0,0.0,68,0.00,,SKC,0.00,VWS V14.01,2013-07-17 05:14:00,
2013-07-17 00:15:00,76.8,65.0,30.29,South,176,0.0,0.0,67,0.00,,SKC,0.00,VWS V14.01,2013-07-17 05:15:00,
2013-07-17 00:16:00,76.5,65.1,30.29,South,180,0.0,0.0,68,0.00,,SKC,0.00,VWS V14.01,2013-07-17 05:16:00,
2013-07-17 00:17:00,76.5,65.1,30.29,South,180,0.0,0.0,68,0.00,,SKC,0.00,VWS V14.01,2013-07-17 05:17:00,
2013-07-17 00:18:00,76.5,65.1,30.29,South,180,0.0,0.0,68,0.00,,SKC,0.00,VWS V14.01,2013-07-17 05:18:00,
2013-07-17 00:20:00,76.5,65.1,30.29,South,180,0.0,0.0,68,0.00,,SKC,0.00,VWS V14.01,2013-07-17 05:20:00,
2013-07-17 00:21:00,76.3,64.9,30.29,South,180,0.0,0.0,68,0.00,,SKC,0.00,VWS V14.01,2013-07-17 05:21:00,
2013-07-17 00:22:00,76.3,64.9,30.29,South,180,0.0,0.0,68,0.00,,SKC,0.00,VWS V14.01,2013-07-17 05:22:00,
2013-07-17 00:23:00,76.3,64.9,30.29,South,180,0.0,0.0,68,0.00,,SKC,0.00,VWS V14.01,2013-07-17 05:23:00,
2013-07-17 00:24:00,76.3,64.9,30.29,South,180,0.0,0.0,68,0.00,,SKC,0.00,VWS V14.01,2013-07-17 05:24:00,
2013-07-17 00:25:00,76.3,64.9,30.29,South,180,0.0,0.0,68,0.00,,SKC,0.00,VWS V14.01,2013-07-17 05:25:00,
2013-07-17 00:26:00,76.1,64.8,30.29,South,179,0.0,0.0,68,0.00,,SKC,0.00,VWS V14.01,2013-07-17 05:26:00,
2013-07-17 00:29:00,76.5,65.1,30.29,South,180,0.0,0.0,68,0.00,,SKC,0.00,VWS V14.01,2013-07-17 05:29:00,
2013-07-17 00:37:00,76.1,64.8,30.29,South,179,0.0,0.0,68,0.00,,SKC,0.00,VWS V14.01,2013-07-17 05:37:00,
2013-07-17 00:42:00,76.1,65.2,30.29,South,179,0.0,0.0,69,0.00,,SKC,0.00,VWS V14.01,2013-07-17 05:42:00,
2013-07-17 00:47:00,75.9,65.0,30.29,South,179,0.0,0.0,69,0.00,,SKC,0.00,VWS V14.01,2013-07-17 05:47:00,
2013-07-17 00:52:00,75.9,65.0,30.29,South,179,0.0,0.0,69,0.00,,SKC,0.00,VWS V14.01,2013-07-17 05:52:00,
2013-07-17 00:57:00,75.7,64.9,30.29,South,179,0.0,0.0,69,0.00,,SKC,0.00,VWS V14.01,2013-07-17 05:57:00,
2013-07-17 01:00:00,75.6,64.7,30.29,South,179,0.0,0.0,69,0.00,,SKC,0.00,VWS V14.01,2013-07-17 06:00:00,
2013-07-17 01:01:00,75.6,64.7,30.29,South,179,0.0,0.0,69,0.00,,SKC,0.00,VWS V14.01,2013-07-17 06:01:00,
2013-07-17 01:02:00,75.7,64.9,30.29,South,179,0.0,0.0,69,0.00,,SKC,0.00,VWS V14.01,2013-07-17 06:02:00,
2013-07-17 01:04:00,75.6,65.1,30.29,South,179,0.0,0.0,70,0.00,,SKC,0.00,VWS V14.01,2013-07-17 06:04:00,
2013-07-17 01:05:00,75.6,65.1,30.29,South,179,0.0,0.0,70,0.00,,SKC,0.00,VWS V14.01,2013-07-17 06:05:00,
2013-07-17 01:06:00,75.6,65.1,30.29,South,179,0.0,0.0,70,0.00,,SKC,0.00,VWS V14.01,2013-07-17 06:06:00,
2013-07-17 01:07:00,75.6,64.7,30.29,South,179,0.0,0.0,69,0.00,,SKC,0.00,VWS V14.01,2013-07-17 06:07:00,
2013-07-17 01:08:00,75.4,64.9,30.29,South,179,0.0,0.0,70,0.00,,SKC,0.00,VWS V14.01,2013-07-17 06:08:00,
2013-07-17 01:09:00,75.4,64.9,30.29,South,179,0.0,0.0,70,0.00,,SKC,0.00,VWS V14.01,2013-07-17 06:09:00,
2013-07-17 01:10:00,75.4,64.9,30.29,South,179,0.0,0.0,70,0.00,,SKC,0.00,VWS V14.01,2013-07-17 06:10:00,
2013-07-17 01:11:00,75.4,64.9,30.29,South,179,0.0,0.0,70,0.00,,SKC,0.00,VWS V14.01,2013-07-17 06:11:00,
2013-07-17 01:12:00,75.6,65.1,30.29,South,179,0.0,0.0,70,0.00,,SKC,0.00,VWS V14.01,2013-07-17 06:12:00,
2013-07-17 01:13:00,75.4,64.9,30.29,South,179,0.0,0.0,70,0.00,,SKC,0.00,VWS V14.01,2013-07-17 06:13:00,
2013-07-17 01:14:00,75.4,64.9,30.29,South,179,0.0,0.0,70,0.00,,SKC,0.00,VWS V14.01,2013-07-17 06:14:00,
2013-07-17 01:15:00,75.4,64.9,30.29,South,179,0.0,0.0,70,0.00,,SKC,0.00,VWS V14.01,2013-07-17 06:15:00,
2013-07-17 01:16:00,75.4,64.9,30.29,South,179,0.0,0.0,70,0.00,,SKC,0.00,VWS V14.01,2013-07-17 06:16:00,
2013-07-17 01:17:00,75.2,64.8,30.29,South,179,0.0,0.0,70,0.00,,SKC,0.00,VWS V14.01,2013-07-17 06:17:00,
2013-07-17 01:18:00,75.2,64.8,30.29,South,179,0.0,0.0,70,0.00,,SKC,0.00,VWS V14.01,2013-07-17 06:18:00,
2013-07-17 01:19:00,75.2,64.8,30.29,South,179,0.0,0.0,70,0.00,,SKC,0.00,VWS V14.01,2013-07-17 06:19:00,
2013-07-17 01:20:00,75.2,64.8,30.29,South,179,0.0,0.0,70,0.00,,SKC,0.00,VWS V14.01,2013-07-17 06:20:00,
2013-07-17 01:21:00,75.2,64.8,30.29,South,179,0.0,0.0,70,0.00,,SKC,0.00,VWS V14.01,2013-07-17 06:21:00,
2013-07-17 01:22:00,75.2,64.8,30.29,South,179,0.0,0.0,70,0.00,,SKC,0.00,VWS V14.01,2013-07-17 06:22:00,
2013-07-17 01:23:00,75.2,64.8,30.29,South,179,0.0,0.0,70,0.00,,SKC,0.00,VWS V14.01,2013-07-17 06:23:00,
2013-07-17 01:24:00,75.2,64.8,30.29,South,179,0.0,0.0,70,0.00,,SKC,0.00,VWS V14.01,2013-07-17 06:24:00,
2013-07-17 01:25:00,75.2,64.8,30.29,South,179,0.0,0.0,70,0.00,,SKC,0.00,VWS V14.01,2013-07-17 06:25:00,
2013-07-17 01:26:00,75.2,64.8,30.29,South,179,0.0,0.0,70,0.00,,SKC,0.00,VWS V14.01,2013-07-17 06:26:00,
2013-07-17 01:27:00,75.0,64.6,30.29,South,179,0.0,0.0,70,0.00,,SKC,0.00,VWS V14.01,2013-07-17 06:27:00,
2013-07-17 01:28:00,75.0,64.6,30.29,South,179,0.0,0.0,70,0.00,,SKC,0.00,VWS V14.01,2013-07-17 06:28:00,
2013-07-17 01:39:00,75.0,65.0,30.29,South,179,0.0,0.0,71,0.00,,SKC,0.00,VWS V14.01,2013-07-17 06:39:00,
2013-07-17 01:45:00,75.0,65.0,30.29,South,179,0.0,0.0,71,0.00,,SKC,0.00,VWS V14.01,2013-07-17 06:45:00,
2013-07-17 01:50:00,74.8,65.6,30.29,South,179,0.0,0.0,73,0.00,,SKC,0.00,VWS V14.01,2013-07-17 06:50:00,
2013-07-17 01:55:00,74.7,65.0,30.29,South,179,0.0,0.0,72,0.00,,SKC,0.00,VWS V14.01,2013-07-17 06:55:00,
2013-07-17 01:56:00,74.3,65.1,30.29,South,179,0.0,0.0,73,0.00,,SKC,0.00,VWS V14.01,2013-07-17 06:56:00,
2013-07-17 01:57:00,74.3,65.1,30.29,South,179,0.0,0.0,73,0.00,,SKC,0.00,VWS V14.01,2013-07-17 06:57:00,
2013-07-17 01:58:00,74.3,65.1,30.29,South,179,0.0,0.0,73,0.00,,SKC,0.00,VWS V14.01,2013-07-17 06:58:00,
2013-07-17 01:59:00,74.1,64.9,30.29,South,179,0.0,0.0,73,0.00,,SKC,0.00,VWS V14.01,2013-07-17 06:59:00,
2013-07-17 02:00:00,74.5,64.9,30.29,South,179,0.0,0.0,72,0.00,,SKC,0.00,VWS V14.01,2013-07-17 07:00:00,
2013-07-17 02:01:00,74.1,64.9,30.29,South,179,0.0,0.0,73,0.00,,SKC,0.00,VWS V14.01,2013-07-17 07:01:00,
2013-07-17 02:02:00,74.1,65.3,30.29,South,179,0.0,0.0,74,0.00,,SKC,0.00,VWS V14.01,2013-07-17 07:02:00,
2013-07-17 02:03:00,74.1,65.3,30.29,South,179,0.0,0.0,74,0.00,,SKC,0.00,VWS V14.01,2013-07-17 07:03:00,
2013-07-17 02:04:00,74.1,65.3,30.29,South,179,0.0,0.0,74,0.00,,SKC,0.00,VWS V14.01,2013-07-17 07:04:00,
2013-07-17 02:05:00,74.1,65.3,30.29,South,179,0.0,0.0,74,0.00,,SKC,0.00,VWS V14.01,2013-07-17 07:05:00,
2013-07-17 02:06:00,74.1,65.3,30.29,South,179,0.0,0.0,74,0.00,,SKC,0.00,VWS V14.01,2013-07-17 07:06:00,
2013-07-17 02:07:00,74.1,65.3,30.29,South,179,0.0,0.0,74,0.00,,SKC,0.00,VWS V14.01,2013-07-17 07:07:00,
2013-07-17 02:08:00,74.1,65.7,30.29,South,179,0.0,0.0,75,0.00,,SKC,0.00,VWS V14.01,2013-07-17 07:08:00,
2013-07-17 02:09:00,74.1,65.7,30.29,South,179,0.0,0.0,75,0.00,,SKC,0.00,VWS V14.01,2013-07-17 07:09:00,
2013-07-17 02:10:00,74.1,65.7,30.29,South,179,0.0,0.0,75,0.00,,SKC,0.00,VWS V14.01,2013-07-17 07:10:00,
2013-07-17 02:11:00,73.9,65.5,30.29,South,179,0.0,0.0,75,0.00,,SKC,0.00,VWS V14.01,2013-07-17 07:11:00,
2013-07-17 02:12:00,73.9,65.5,30.29,South,179,0.0,0.0,75,0.00,,SKC,0.00,VWS V14.01,2013-07-17 07:12:00,
2013-07-17 02:13:00,73.9,65.5,30.29,South,179,0.0,0.0,75,0.00,,SKC,0.00,VWS V14.01,2013-07-17 07:13:00,
2013-07-17 02:14:00,73.9,65.5,30.29,South,179,0.0,0.0,75,0.00,,SKC,0.00,VWS V14.01,2013-07-17 07:14:00,
2013-07-17 02:15:00,73.9,65.5,30.29,South,179,0.0,0.0,75,0.00,,SKC,0.00,VWS V14.01,2013-07-17 07:15:00,
2013-07-17 02:16:00,73.9,65.5,30.29,South,179,0.0,0.0,75,0.00,,SKC,0.00,VWS V14.01,2013-07-17 07:16:00,
2013-07-17 02:17:00,73.9,65.5,30.29,South,179,0.0,0.0,75,0.00,,SKC,0.00,VWS V14.01,2013-07-17 07:17:00,
2013-07-17 02:18:00,73.9,65.5,30.29,South,179,0.0,0.0,75,0.00,,SKC,0.00,VWS V14.01,2013-07-17 07:18:00,
2013-07-17 02:19:00,73.8,65.3,30.29,South,179,0.0,0.0,75,0.00,,SKC,0.00,VWS V14.01,2013-07-17 07:19:00,
2013-07-17 02:20:00,73.8,65.7,30.29,South,179,0.0,0.0,76,0.00,,SKC,0.00,VWS V14.01,2013-07-17 07:20:00,
2013-07-17 02:21:00,73.8,65.7,30.29,South,179,0.0,0.0,76,0.00,,SKC,0.00,VWS V14.01,2013-07-17 07:21:00,
2013-07-17 02:22:00,73.8,65.7,30.29,South,179,0.0,0.0,76,0.00,,SKC,0.00,VWS V14.01,2013-07-17 07:22:00,
2013-07-17 02:23:00,73.8,65.7,30.29,South,179,0.0,0.0,76,0.00,,SKC,0.00,VWS V14.01,2013-07-17 07:23:00,
2013-07-17 02:24:00,73.8,65.7,30.29,South,179,0.0,0.0,76,0.00,,SKC,0.00,VWS V14.01,2013-07-17 07:24:00,
2013-07-17 02:25:00,73.8,65.7,30.29,South,179,0.0,0.0,76,0.00,,SKC,0.00,VWS V14.01,2013-07-17 07:25:00,
2013-07-17 02:26:00,73.8,65.7,30.29,South,179,0.0,0.0,76,0.00,,SKC,0.00,VWS V14.01,2013-07-17 07:26:00,
2013-07-17 02:27:00,73.8,65.7,30.29,South,179,0.0,0.0,76,0.00,,SKC,0.00,VWS V14.01,2013-07-17 07:27:00,
2013-07-17 02:28:00,73.8,65.7,30.29,South,179,0.0,0.0,76,0.00,,SKC,0.00,VWS V14.01,2013-07-17 07:28:00,
2013-07-17 02:29:00,73.8,65.7,30.29,South,179,0.0,0.0,76,0.00,,SKC,0.00,VWS V14.01,2013-07-17 07:29:00,
2013-07-17 02:30:00,73.8,65.7,30.29,South,179,0.0,0.0,76,0.00,,SKC,0.00,VWS V14.01,2013-07-17 07:30:00,
2013-07-17 02:41:00,73.8,65.7,30.29,South,179,0.0,0.0,76,0.00,,SKC,0.00,VWS V14.01,2013-07-17 07:41:00,
2013-07-17 02:47:00,73.6,65.6,30.29,South,179,0.0,0.0,76,0.00,,SKC,0.00,VWS V14.01,2013-07-17 07:47:00,
2013-07-17 02:50:00,73.4,65.8,30.29,South,179,0.0,0.0,77,0.00,,SKC,0.00,VWS V14.01,2013-07-17 07:50:00,
2013-07-17 02:52:00,73.6,65.9,30.29,South,179,0.0,0.0,77,0.00,,SKC,0.00,VWS V14.01,2013-07-17 07:52:00,
2013-07-17 02:55:00,73.6,65.9,30.29,South,179,0.0,0.0,77,0.00,,SKC,0.00,VWS V14.01,2013-07-17 07:55:00,
2013-07-17 02:56:00,73.4,65.8,30.29,South,179,0.0,0.0,77,0.00,,SKC,0.00,VWS V14.01,2013-07-17 07:56:00,
2013-07-17 02:57:00,73.4,65.8,30.29,South,179,0.0,0.0,77,0.00,,SKC,0.00,VWS V14.01,2013-07-17 07:57:00,
2013-07-17 02:58:00,73.4,65.8,30.29,South,179,0.0,0.0,77,0.00,,SKC,0.00,VWS V14.01,2013-07-17 07:58:00,
2013-07-17 02:59:00,73.4,65.8,30.29,South,179,0.0,0.0,77,0.00,,SKC,0.00,VWS V14.01,2013-07-17 07:59:00,
2013-07-17 03:00:00,73.4,65.8,30.29,South,179,0.0,0.0,77,0.00,,SKC,0.00,VWS V14.01,2013-07-17 08:00:00,
2013-07-17 03:01:00,73.4,65.8,30.29,South,179,0.0,0.0,77,0.00,,SKC,0.00,VWS V14.01,2013-07-17 08:01:00,
2013-07-17 03:02:00,73.4,65.8,30.29,South,179,0.0,0.0,77,0.00,,SKC,0.00,VWS V14.01,2013-07-17 08:02:00,
2013-07-17 03:03:00,73.6,66.3,30.29,South,179,0.0,0.0,78,0.00,,SKC,0.00,VWS V14.01,2013-07-17 08:03:00,
2013-07-17 03:04:00,73.4,65.8,30.29,South,179,0.0,0.0,77,0.00,,SKC,0.00,VWS V14.01,2013-07-17 08:04:00,
2013-07-17 03:05:00,73.4,65.8,30.29,South,179,0.0,0.0,77,0.00,,SKC,0.00,VWS V14.01,2013-07-17 08:05:00,
2013-07-17 03:06:00,73.4,65.8,30.29,South,179,0.0,0.0,77,0.00,,SKC,0.00,VWS V14.01,2013-07-17 08:06:00,
2013-07-17 03:07:00,73.4,65.8,30.29,South,179,0.0,0.0,77,0.00,,SKC,0.00,VWS V14.01,2013-07-17 08:07:00,
2013-07-17 03:08:00,73.4,66.1,30.29,South,179,0.0,0.0,78,0.00,,SKC,0.00,VWS V14.01,2013-07-17 08:08:00,
2013-07-17 03:09:00,73.4,66.1,30.29,South,179,0.0,0.0,78,0.00,,SKC,0.00,VWS V14.01,2013-07-17 08:09:00,
2013-07-17 03:10:00,73.4,66.1,30.29,South,179,0.0,0.0,78,0.00,,SKC,0.00,VWS V14.01,2013-07-17 08:10:00,
2013-07-17 03:11:00,73.4,66.1,30.29,South,179,0.0,0.0,78,0.00,,SKC,0.00,VWS V14.01,2013-07-17 08:11:00,
2013-07-17 03:12:00,73.4,66.1,30.29,South,179,0.0,0.0,78,0.00,,SKC,0.00,VWS V14.01,2013-07-17 08:12:00,
2013-07-17 03:13:00,73.4,66.1,30.29,South,179,0.0,0.0,78,0.00,,SKC,0.00,VWS V14.01,2013-07-17 08:13:00,
2013-07-17 03:14:00,73.4,66.1,30.29,South,179,0.0,0.0,78,0.00,,SKC,0.00,VWS V14.01,2013-07-17 08:14:00,
2013-07-17 03:15:00,73.4,66.1,30.29,South,179,0.0,0.0,78,0.00,,SKC,0.00,VWS V14.01,2013-07-17 08:15:00,
2013-07-17 03:16:00,73.6,66.3,30.29,South,179,0.0,0.0,78,0.00,,SKC,0.00,VWS V14.01,2013-07-17 08:16:00,
2013-07-17 03:17:00,73.6,66.3,30.29,South,179,0.0,0.0,78,0.00,,SKC,0.00,VWS V14.01,2013-07-17 08:17:00,
2013-07-17 03:18:00,73.6,66.3,30.29,South,179,0.0,0.0,78,0.00,,SKC,0.00,VWS V14.01,2013-07-17 08:18:00,
2013-07-17 03:19:00,73.4,66.1,30.29,South,179,0.0,0.0,78,0.00,,SKC,0.00,VWS V14.01,2013-07-17 08:19:00,
2013-07-17 03:20:00,73.6,66.3,30.29,South,179,0.0,0.0,78,0.00,,SKC,0.00,VWS V14.01,2013-07-17 08:20:00,
2013-07-17 03:21:00,73.4,66.1,30.29,South,179,0.0,0.0,78,0.00,,SKC,0.00,VWS V14.01,2013-07-17 08:21:00,
2013-07-17 03:22:00,73.6,66.3,30.29,South,179,0.0,0.0,78,0.00,,SKC,0.00,VWS V14.01,2013-07-17 08:22:00,
2013-07-17 03:23:00,73.4,66.1,30.29,South,179,0.0,0.0,78,0.00,,SKC,0.00,VWS V14.01,2013-07-17 08:23:00,
2013-07-17 03:24:00,73.4,66.1,30.29,South,179,0.0,0.0,78,0.00,,SKC,0.00,VWS V14.01,2013-07-17 08:24:00,
2013-07-17 03:25:00,73.4,66.1,30.29,South,179,0.0,0.0,78,0.00,,SKC,0.00,VWS V14.01,2013-07-17 08:25:00,
2013-07-17 03:26:00,73.6,66.3,30.29,South,179,0.0,0.0,78,0.00,,SKC,0.00,VWS V14.01,2013-07-17 08:26:00,
2013-07-17 03:27:00,73.4,66.1,30.29,South,179,0.0,0.0,78,0.00,,SKC,0.00,VWS V14.01,2013-07-17 08:27:00,
2013-07-17 03:28:00,73.4,66.1,30.29,South,179,0.0,0.0,78,0.00,,SKC,0.00,VWS V14.01,2013-07-17 08:28:00,
2013-07-17 03:29:00,73.4,66.1,30.29,South,179,0.0,0.0,78,0.00,,SKC,0.00,VWS V14.01,2013-07-17 08:29:00,
2013-07-17 03:30:00,73.4,66.1,30.29,South,179,0.0,0.0,78,0.00,,SKC,0.00,VWS V14.01,2013-07-17 08:30:00,
2013-07-17 03:31:00,73.4,66.1,30.29,South,179,0.0,0.0,78,0.00,,SKC,0.00,VWS V14.01,2013-07-17 08:31:00,
2013-07-17 03:32:00,73.4,66.1,30.29,South,179,0.0,0.0,78,0.00,,SKC,0.00,VWS V14.01,2013-07-17 08:32:00,
2013-07-17 03:42:00,73.4,66.1,30.29,South,179,0.0,0.0,78,0.00,,SKC,0.00,VWS V14.01,2013-07-17 08:42:00,
2013-07-17 03:47:00,73.2,66.3,30.29,South,179,0.0,0.0,79,0.00,,SKC,0.00,VWS V14.01,2013-07-17 08:47:00,
2013-07-17 03:52:00,73.2,66.3,30.29,South,179,0.0,0.0,79,0.00,,SKC,0.00,VWS V14.01,2013-07-17 08:52:00,
2013-07-17 03:57:00,73.0,66.2,30.29,South,179,0.0,0.0,79,0.00,,SKC,0.00,VWS V14.01,2013-07-17 08:57:00,
2013-07-17 04:02:00,72.9,66.0,30.29,South,179,0.0,0.0,79,0.00,,SKC,0.00,VWS V14.01,2013-07-17 09:02:00,
2013-07-17 04:07:00,72.9,66.0,30.32,South,179,0.0,0.0,79,0.00,,SKC,0.00,VWS V14.01,2013-07-17 09:07:00,
2013-07-17 04:12:00,72.9,66.0,30.32,South,179,0.0,0.0,79,0.00,,SKC,0.00,VWS V14.01,2013-07-17 09:12:00,
2013-07-17 04:17:00,72.7,65.8,30.32,South,179,0.0,0.0,79,0.00,,SKC,0.00,VWS V14.01,2013-07-17 09:17:00,
2013-07-17 04:22:00,72.5,65.6,30.29,South,179,0.0,0.0,79,0.00,,SKC,0.00,VWS V14.01,2013-07-17 09:22:00,
2013-07-17 04:27:00,72.5,65.6,30.29,South,179,0.0,0.0,79,0.00,,SKC,0.00,VWS V14.01,2013-07-17 09:27:00,
2013-07-17 04:30:00,72.0,65.5,30.32,South,179,0.0,0.0,80,0.00,,SKC,0.00,VWS V14.01,2013-07-17 09:30:00,
2013-07-17 04:32:00,72.3,65.4,30.29,South,179,0.0,0.0,79,0.00,,SKC,0.00,VWS V14.01,2013-07-17 09:32:00,
2013-07-17 04:37:00,72.1,65.3,30.32,South,179,0.0,0.0,79,0.00,,SKC,0.00,VWS V14.01,2013-07-17 09:37:00,
2013-07-17 04:41:00,71.8,65.3,30.32,South,179,0.0,0.0,80,0.00,,SKC,0.00,VWS V14.01,2013-07-17 09:41:00,
2013-07-17 04:42:00,72.0,65.5,30.32,South,179,0.0,0.0,80,0.00,,SKC,0.00,VWS V14.01,2013-07-17 09:42:00,
2013-07-17 04:44:00,71.6,65.1,30.32,South,179,0.0,0.0,80,0.00,,SKC,0.00,VWS V14.01,2013-07-17 09:44:00,
2013-07-17 04:45:00,71.6,65.1,30.32,South,179,0.0,0.0,80,0.00,,SKC,0.00,VWS V14.01,2013-07-17 09:45:00,
2013-07-17 04:47:00,71.8,64.9,30.32,South,179,0.0,0.0,79,0.00,,SKC,0.00,VWS V14.01,2013-07-17 09:47:00,
2013-07-17 04:49:00,71.8,65.3,30.32,South,179,0.0,0.0,80,0.00,,SKC,0.00,VWS V14.01,2013-07-17 09:49:00,
2013-07-17 04:50:00,71.8,65.3,30.32,South,179,0.0,0.0,80,0.00,,SKC,0.00,VWS V14.01,2013-07-17 09:50:00,
2013-07-17 04:52:00,71.6,65.1,30.32,South,179,0.0,0.0,80,0.00,,SKC,0.00,VWS V14.01,2013-07-17 09:52:00,
2013-07-17 04:53:00,71.6,65.1,30.32,South,179,0.0,0.0,80,0.00,,SKC,0.00,VWS V14.01,2013-07-17 09:53:00,
2013-07-17 04:54:00,71.6,65.1,30.32,South,179,0.0,0.0,80,0.00,,SKC,0.00,VWS V14.01,2013-07-17 09:54:00,
2013-07-17 04:55:00,71.6,65.1,30.32,South,179,0.0,0.0,80,0.00,,SKC,0.00,VWS V14.01,2013-07-17 09:55:00,
2013-07-17 04:56:00,71.6,65.1,30.32,South,179,0.0,0.0,80,0.00,,SKC,0.00,VWS V14.01,2013-07-17 09:56:00,
2013-07-17 04:57:00,71.6,65.1,30.32,South,179,0.0,0.0,80,0.00,,SKC,0.00,VWS V14.01,2013-07-17 09:57:00,
2013-07-17 04:58:00,71.8,65.3,30.32,South,179,0.0,0.0,80,0.00,,SKC,0.00,VWS V14.01,2013-07-17 09:58:00,
2013-07-17 04:59:00,71.8,65.3,30.32,South,179,0.0,0.0,80,0.00,,SKC,0.00,VWS V14.01,2013-07-17 09:59:00,
2013-07-17 05:00:00,71.8,65.3,30.32,South,179,0.0,0.0,80,0.00,,SKC,0.00,VWS V14.01,2013-07-17 10:00:00,
2013-07-17 05:02:00,71.8,65.3,30.32,South,179,0.0,0.0,80,0.00,,SKC,0.00,VWS V14.01,2013-07-17 10:02:00,
2013-07-17 05:03:00,71.8,65.3,30.32,South,179,0.0,0.0,80,0.00,,SKC,0.00,VWS V14.01,2013-07-17 10:03:00,
2013-07-17 05:04:00,72.0,65.8,30.32,South,179,0.0,0.0,81,0.00,,SKC,0.00,VWS V14.01,2013-07-17 10:04:00,
2013-07-17 05:05:00,72.0,65.8,30.32,South,179,0.0,0.0,81,0.00,,SKC,0.00,VWS V14.01,2013-07-17 10:05:00,
2013-07-17 05:06:00,72.0,65.8,30.32,South,179,0.0,0.0,81,0.00,,SKC,0.00,VWS V14.01,2013-07-17 10:06:00,
2013-07-17 05:07:00,72.1,66.3,30.32,South,179,0.0,0.0,82,0.00,,SKC,0.00,VWS V14.01,2013-07-17 10:07:00,
2013-07-17 05:08:00,72.1,66.3,30.32,South,179,0.0,0.0,82,0.00,,SKC,0.00,VWS V14.01,2013-07-17 10:08:00,
2013-07-17 05:09:00,72.1,66.7,30.32,South,179,0.0,0.0,83,0.00,,SKC,0.00,VWS V14.01,2013-07-17 10:09:00,
2013-07-17 05:10:00,72.1,66.7,30.32,South,173,0.0,0.0,83,0.00,,SKC,0.00,VWS V14.01,2013-07-17 10:10:00,
2013-07-17 05:11:00,71.8,65.3,30.32,South,179,0.0,0.0,80,0.00,,SKC,0.00,VWS V14.01,2013-07-17 10:11:00,
2013-07-17 05:12:00,72.1,67.0,30.32,South,173,0.0,0.0,84,0.00,,SKC,0.00,VWS V14.01,2013-07-17 10:12:00,
2013-07-17 05:13:00,72.1,67.0,30.32,South,173,0.0,0.0,84,0.00,,SKC,0.00,VWS V14.01,2013-07-17 10:13:00,
2013-07-17 05:14:00,72.3,67.6,30.32,South,173,0.0,0.0,85,0.00,,SKC,0.00,VWS V14.01,2013-07-17 10:14:00,
2013-07-17 05:15:00,72.1,67.4,30.32,South,173,0.0,0.0,85,0.00,,SKC,0.00,VWS V14.01,2013-07-17 10:15:00,
2013-07-17 05:16:00,72.1,67.4,30.32,South,173,0.0,0.0,85,0.00,,SKC,0.00,VWS V14.01,2013-07-17 10:16:00,
2013-07-17 05:17:00,72.1,66.0,30.32,South,179,0.0,0.0,81,0.00,,SKC,0.00,VWS V14.01,2013-07-17 10:17:00,
2013-07-17 05:18:00,72.1,67.4,30.32,South,173,0.0,0.0,85,0.00,,SKC,0.00,VWS V14.01,2013-07-17 10:18:00,
2013-07-17 05:19:00,72.1,67.4,30.32,South,173,0.0,0.0,85,0.00,,SKC,0.00,VWS V14.01,2013-07-17 10:19:00,
2013-07-17 05:22:00,72.3,67.2,30.32,South,173,0.0,0.0,84,0.00,,SKC,0.00,VWS V14.01,2013-07-17 10:22:00,
2013-07-17 05:26:00,72.1,67.4,30.32,South,173,0.0,0.0,85,0.00,,SKC,0.00,VWS V14.01,2013-07-17 10:26:00,
2013-07-17 05:27:00,72.1,67.4,30.32,South,173,0.0,0.0,85,0.00,,SKC,0.00,VWS V14.01,2013-07-17 10:27:00,
2013-07-17 05:30:00,72.1,67.4,30.32,South,173,0.0,0.0,85,0.00,,SKC,0.00,VWS V14.01,2013-07-17 10:30:00,
2013-07-17 05:35:00,72.1,67.4,30.32,South,173,0.0,0.0,85,0.00,,SKC,0.00,VWS V14.01,2013-07-17 10:35:00,
2013-07-17 05:40:00,72.1,67.4,30.32,South,173,0.0,0.0,85,0.00,,SKC,0.00,VWS V14.01,2013-07-17 10:40:00,
2013-07-17 05:46:00,72.0,67.2,30.32,South,173,0.0,0.0,85,0.00,,SKC,0.00,VWS V14.01,2013-07-17 10:46:00,
2013-07-17 05:51:00,72.0,67.2,30.32,South,173,0.0,0.0,85,0.00,,SKC,0.00,VWS V14.01,2013-07-17 10:51:00,
2013-07-17 05:56:00,71.8,67.0,30.32,South,173,0.0,0.0,85,0.00,,SKC,0.00,VWS V14.01,2013-07-17 10:56:00,
2013-07-17 06:00:00,71.8,67.4,30.32,South,172,0.0,0.0,86,0.00,,SKC,0.00,VWS V14.01,2013-07-17 11:00:00,
2013-07-17 06:02:00,71.8,67.0,30.32,South,173,0.0,0.0,85,0.00,,SKC,0.00,VWS V14.01,2013-07-17 11:02:00,
2013-07-17 06:07:00,72.0,67.6,30.32,South,172,0.0,0.0,86,0.00,,SKC,0.00,VWS V14.01,2013-07-17 11:07:00,
2013-07-17 06:12:00,72.0,67.6,30.32,South,172,0.0,0.0,86,0.00,,SKC,0.00,VWS V14.01,2013-07-17 11:12:00,
2013-07-17 06:17:00,71.8,67.4,30.32,South,173,0.0,0.0,86,0.00,,SKC,0.00,VWS V14.01,2013-07-17 11:17:00,
2013-07-17 06:22:00,71.8,67.4,30.32,South,173,0.0,0.0,86,0.00,,SKC,0.00,VWS V14.01,2013-07-17 11:22:00,
2013-07-17 06:27:00,72.0,67.6,30.32,South,173,0.0,0.0,86,0.00,,SKC,0.00,VWS V14.01,2013-07-17 11:27:00,
2013-07-17 06:32:00,72.0,67.6,30.32,South,173,0.0,0.0,86,0.00,,SKC,0.00,VWS V14.01,2013-07-17 11:32:00,
2013-07-17 06:37:00,72.3,68.2,30.32,South,173,0.0,0.0,87,0.00,,SKC,0.00,VWS V14.01,2013-07-17 11:37:00,
2013-07-17 06:42:00,72.3,68.2,30.32,South,173,0.0,0.0,87,0.00,,SKC,0.00,VWS V14.01,2013-07-17 11:42:00,
2013-07-17 06:44:00,72.5,68.4,30.32,South,173,0.0,0.0,87,0.00,,SKC,0.00,VWS V14.01,2013-07-17 11:44:00,
2013-07-17 06:46:00,72.7,68.6,30.32,South,177,0.0,0.0,87,0.00,,SKC,0.00,VWS V14.01,2013-07-17 11:46:00,
2013-07-17 06:47:00,72.5,68.4,30.32,South,173,0.0,0.0,87,0.00,,SKC,0.00,VWS V14.01,2013-07-17 11:47:00,
2013-07-17 06:48:00,72.7,68.6,30.32,South,177,0.0,0.0,87,0.00,,SKC,0.00,VWS V14.01,2013-07-17 11:48:00,
2013-07-17 06:49:00,72.7,68.6,30.32,South,177,0.0,0.0,87,0.00,,SKC,0.00,VWS V14.01,2013-07-17 11:49:00,
2013-07-17 06:50:00,72.7,68.6,30.32,South,177,0.0,0.0,87,0.00,,SKC,0.00,VWS V14.01,2013-07-17 11:50:00,
2013-07-17 06:52:00,72.5,68.4,30.32,South,173,0.0,0.0,87,0.00,,SKC,0.00,VWS V14.01,2013-07-17 11:52:00,
2013-07-17 06:53:00,72.9,68.8,30.32,South,177,0.0,0.0,87,0.00,,SKC,0.00,VWS V14.01,2013-07-17 11:53:00,
2013-07-17 06:54:00,73.0,68.9,30.32,South,177,0.0,0.0,87,0.00,,SKC,0.00,VWS V14.01,2013-07-17 11:54:00,
2013-07-17 06:57:00,73.2,69.1,30.32,South,176,0.0,0.0,87,0.00,,SKC,0.00,VWS V14.01,2013-07-17 11:57:00,
2013-07-17 06:58:00,73.2,69.1,30.32,South,179,0.0,0.0,87,0.00,,SKC,0.00,VWS V14.01,2013-07-17 11:58:00,
2013-07-17 06:59:00,73.2,69.1,30.32,South,179,0.0,0.0,87,0.00,,SKC,0.00,VWS V14.01,2013-07-17 11:59:00,
2013-07-17 07:00:00,73.2,69.1,30.32,South,179,0.0,0.0,87,0.00,,SKC,0.00,VWS V14.01,2013-07-17 12:00:00,
2013-07-17 07:01:00,72.9,68.8,30.32,South,177,0.0,0.0,87,0.00,,SKC,0.00,VWS V14.01,2013-07-17 12:01:00,
2013-07-17 07:02:00,73.4,69.3,30.32,South,179,0.0,0.0,87,0.00,,SKC,0.00,VWS V14.01,2013-07-17 12:02:00,
2013-07-17 07:04:00,73.6,69.5,30.32,South,179,0.0,0.0,87,0.00,,SKC,0.00,VWS V14.01,2013-07-17 12:04:00,
2013-07-17 07:05:00,73.6,69.5,30.32,South,179,0.0,0.0,87,0.00,,SKC,0.00,VWS V14.01,2013-07-17 12:05:00,
2013-07-17 07:06:00,73.0,68.9,30.32,South,177,0.0,0.0,87,0.00,,SKC,0.00,VWS V14.01,2013-07-17 12:06:00,
2013-07-17 07:07:00,73.6,69.5,30.32,SSW,209,0.0,0.0,87,0.00,,SKC,0.00,VWS V14.01,2013-07-17 12:07:00,
2013-07-17 07:09:00,73.8,69.7,30.32,SSW,209,0.0,0.0,87,0.00,,SKC,0.00,VWS V14.01,2013-07-17 12:09:00,
2013-07-17 07:11:00,73.8,69.7,30.32,SSW,209,0.0,0.0,87,0.00,,SKC,0.00,VWS V14.01,2013-07-17 12:11:00,
2013-07-17 07:12:00,73.8,69.3,30.32,South,191,0.0,0.0,86,0.00,,SKC,0.00,VWS V14.01,2013-07-17 12:12:00,
2013-07-17 07:13:00,73.4,69.3,30.32,South,179,0.0,0.0,87,0.00,,SKC,0.00,VWS V14.01,2013-07-17 12:13:00,
2013-07-17 07:17:00,74.1,69.7,30.32,South,191,0.0,0.0,86,0.00,,SKC,0.00,VWS V14.01,2013-07-17 12:17:00,
2013-07-17 07:20:00,73.8,69.7,30.32,SSW,209,0.0,0.0,87,0.00,,SKC,0.00,VWS V14.01,2013-07-17 12:20:00,
2013-07-17 07:26:00,74.1,69.7,30.32,South,191,0.0,0.0,86,0.00,,SKC,0.00,VWS V14.01,2013-07-17 12:26:00,
2013-07-17 07:32:00,74.3,69.8,30.32,South,191,0.0,0.0,86,0.00,,SKC,0.00,VWS V14.01,2013-07-17 12:32:00,
2013-07-17 07:37:00,74.7,69.9,30.32,South,191,0.0,0.0,85,0.00,,SKC,0.00,VWS V14.01,2013-07-17 12:37:00,
2013-07-17 07:42:00,74.8,70.0,30.32,SSW,192,0.0,0.0,85,0.00,,SKC,0.00,VWS V14.01,2013-07-17 12:42:00,
2013-07-17 07:47:00,75.2,69.7,30.32,SSW,192,0.0,0.0,83,0.00,,SKC,0.00,VWS V14.01,2013-07-17 12:47:00,
2013-07-17 07:53:00,75.6,69.0,30.32,SSW,192,0.0,0.0,80,0.00,,SKC,0.00,VWS V14.01,2013-07-17 12:53:00,
2013-07-17 07:58:00,75.9,68.9,30.32,SSW,192,0.0,0.0,79,0.00,,SKC,0.00,VWS V14.01,2013-07-17 12:58:00,
2013-07-17 08:03:00,76.3,69.3,30.32,SSW,192,0.0,0.0,79,0.00,,SKC,0.00,VWS V14.01,2013-07-17 13:03:00,
2013-07-17 08:09:00,76.6,69.6,30.32,SSW,192,0.0,0.0,79,0.00,,SKC,0.00,VWS V14.01,2013-07-17 13:09:00,
2013-07-17 08:15:00,77.2,69.0,30.32,SSW,192,0.0,0.0,76,0.00,,SKC,0.00,VWS V14.01,2013-07-17 13:15:00,
2013-07-17 08:20:00,78.8,69.8,30.32,SSW,192,0.0,0.0,74,0.00,,SKC,0.00,VWS V14.01,2013-07-17 13:20:00,
2013-07-17 08:26:00,87.1,73.9,30.32,SSW,192,0.0,0.0,65,0.00,,SKC,0.00,VWS V14.01,2013-07-17 13:26:00,
2013-07-17 08:31:00,92.3,65.2,30.32,SSW,192,0.0,0.0,41,0.00,,SKC,0.00,VWS V14.01,2013-07-17 13:31:00,
2013-07-17 08:36:00,92.8,64.3,30.32,SSW,192,0.0,0.0,39,0.00,,SKC,0.00,VWS V14.01,2013-07-17 13:36:00,
2013-07-17 08:40:00,84.2,63.6,30.32,SSW,192,0.0,0.0,50,0.00,,SKC,0.00,VWS V14.01,2013-07-17 13:40:00,
2013-07-17 08:41:00,89.2,62.5,30.32,SSW,192,0.0,0.0,41,0.00,,SKC,0.00,VWS V14.01,2013-07-17 13:41:00,
2013-07-17 08:43:00,83.7,63.6,30.32,SSW,192,0.0,0.0,51,0.00,,SKC,0.00,VWS V14.01,2013-07-17 13:43:00,
2013-07-17 08:46:00,85.1,62.6,30.32,SSW,192,0.0,0.0,47,0.00,,SKC,0.00,VWS V14.01,2013-07-17 13:46:00,
2013-07-17 08:49:00,83.3,65.5,30.32,SSW,192,0.0,0.0,55,0.00,,SKC,0.00,VWS V14.01,2013-07-17 13:49:00,
2013-07-17 08:51:00,83.7,63.6,30.32,SSW,192,0.0,0.0,51,0.00,,SKC,0.00,VWS V14.01,2013-07-17 13:51:00,
2013-07-17 08:52:00,83.3,64.4,30.32,SSW,192,0.0,0.0,53,0.00,,SKC,0.00,VWS V14.01,2013-07-17 13:52:00,
2013-07-17 08:54:00,83.3,63.9,30.32,SSW,192,0.0,0.0,52,0.00,,SKC,0.00,VWS V14.01,2013-07-17 13:54:00,
2013-07-17 08:56:00,83.3,64.4,30.32,SSW,192,0.0,0.0,53,0.00,,SKC,0.00,VWS V14.01,2013-07-17 13:56:00,
2013-07-17 08:58:00,83.7,64.2,30.32,SSW,192,0.0,0.0,52,0.00,,SKC,0.00,VWS V14.01,2013-07-17 13:58:00,
2013-07-17 08:59:00,83.7,64.7,30.32,SSW,192,0.0,0.0,53,0.00,,SKC,0.00,VWS V14.01,2013-07-17 13:59:00,
2013-07-17 09:00:00,84.0,66.1,30.32,SSW,192,0.0,0.0,55,0.00,,SKC,0.00,VWS V14.01,2013-07-17 14:00:00,
2013-07-17 09:01:00,84.0,66.1,30.32,SSW,192,0.0,0.0,55,0.00,,SKC,0.00,VWS V14.01,2013-07-17 14:01:00,
2013-07-17 09:02:00,84.2,66.3,30.32,SSW,192,0.0,0.0,55,0.00,,SKC,0.00,VWS V14.01,2013-07-17 14:02:00,
2013-07-17 09:03:00,83.3,63.9,30.32,SSW,192,0.0,0.0,52,0.00,,SKC,0.00,VWS V14.01,2013-07-17 14:03:00,
2013-07-17 09:06:00,84.6,64.5,30.32,SSW,192,0.0,0.0,51,0.00,,SKC,0.00,VWS V14.01,2013-07-17 14:06:00,
2013-07-17 09:08:00,84.7,65.2,30.32,SSW,192,0.0,0.0,52,0.00,,SKC,0.00,VWS V14.01,2013-07-17 14:08:00,
2013-07-17 09:10:00,84.7,64.6,30.32,SSW,192,0.0,0.0,51,0.00,,SKC,0.00,VWS V14.01,2013-07-17 14:10:00,
2013-07-17 09:11:00,84.9,64.8,30.32,SSW,192,0.0,0.0,51,0.00,,SKC,0.00,VWS V14.01,2013-07-17 14:11:00,
2013-07-17 09:12:00,84.9,64.2,30.32,SSW,192,0.0,0.0,50,0.00,,SKC,0.00,VWS V14.01,2013-07-17 14:12:00,
2013-07-17 09:13:00,85.1,64.4,30.32,SSW,192,0.0,0.0,50,0.00,,SKC,0.00,VWS V14.01,2013-07-17 14:13:00,
2013-07-17 09:14:00,84.4,66.5,30.32,SSW,192,0.0,0.0,55,0.00,,SKC,0.00,VWS V14.01,2013-07-17 14:14:00,
2013-07-17 09:15:00,85.1,63.2,30.32,SSW,192,0.0,0.0,48,0.00,,SKC,0.00,VWS V14.01,2013-07-17 14:15:00,
2013-07-17 09:16:00,85.1,62.6,30.32,SSW,192,0.0,0.0,47,0.00,,SKC,0.00,VWS V14.01,2013-07-17 14:16:00,
2013-07-17 09:17:00,85.3,63.4,30.32,SSW,192,0.0,0.0,48,0.00,,SKC,0.00,VWS V14.01,2013-07-17 14:17:00,
2013-07-17 09:19:00,84.7,64.6,30.32,SSW,192,0.0,0.0,51,0.00,,SKC,0.00,VWS V14.01,2013-07-17 14:19:00,
2013-07-17 09:20:00,85.5,63.5,30.32,SSW,192,0.0,0.0,48,0.00,,SKC,0.00,VWS V14.01,2013-07-17 14:20:00,
2013-07-17 09:21:00,85.5,63.0,30.32,SSW,192,0.0,0.0,47,0.00,,SKC,0.00,VWS V14.01,2013-07-17 14:21:00,
2013-07-17 09:23:00,85.6,62.5,30.32,SSW,192,0.0,0.0,46,0.00,,SKC,0.00,VWS V14.01,2013-07-17 14:23:00,
2013-07-17 09:25:00,85.8,64.5,30.32,SSW,192,0.0,0.0,49,0.00,,SKC,0.00,VWS V14.01,2013-07-17 14:25:00,
2013-07-17 09:26:00,85.1,62.6,30.32,SSW,192,0.0,0.0,47,0.00,,SKC,0.00,VWS V14.01,2013-07-17 14:26:00,
2013-07-17 09:28:00,86.0,62.2,30.32,SSW,192,0.0,0.0,45,0.00,,SKC,0.00,VWS V14.01,2013-07-17 14:28:00,
2013-07-17 09:29:00,86.0,62.2,30.32,SSW,192,0.0,0.0,45,0.00,,SKC,0.00,VWS V14.01,2013-07-17 14:29:00,
2013-07-17 09:30:00,86.2,62.4,30.32,SSW,192,0.0,0.0,45,0.00,,SKC,0.00,VWS V14.01,2013-07-17 14:30:00,
2013-07-17 09:31:00,86.4,61.9,30.32,SSW,192,0.0,0.0,44,0.00,,SKC,0.00,VWS V14.01,2013-07-17 14:31:00,
2013-07-17 09:32:00,85.5,62.3,30.32,SSW,192,0.0,0.0,46,0.00,,SKC,0.00,VWS V14.01,2013-07-17 14:32:00,
2013-07-17 09:34:00,86.7,61.6,30.32,SSW,192,0.0,0.0,43,0.00,,SKC,0.00,VWS V14.01,2013-07-17 14:34:00,
2013-07-17 09:36:00,86.9,62.4,30.32,SSW,192,0.0,0.0,44,0.00,,SKC,0.00,VWS V14.01,2013-07-17 14:36:00,
2013-07-17 09:37:00,86.0,61.6,30.32,SSW,192,0.0,0.0,44,0.00,,SKC,0.00,VWS V14.01,2013-07-17 14:37:00,
2013-07-17 09:43:00,86.5,62.1,30.32,SSW,192,0.0,0.0,44,0.00,,SKC,0.00,VWS V14.01,2013-07-17 14:43:00,
2013-07-17 09:45:00,87.6,61.7,30.32,SSW,192,0.0,0.0,42,0.00,,SKC,0.00,VWS V14.01,2013-07-17 14:45:00,
2013-07-17 09:46:00,87.6,61.7,30.32,SSW,192,0.0,0.0,42,0.00,,SKC,0.00,VWS V14.01,2013-07-17 14:46:00,
2013-07-17 09:48:00,86.9,61.1,30.32,SSW,192,0.0,0.0,42,0.00,,SKC,0.00,VWS V14.01,2013-07-17 14:48:00,
2013-07-17 09:49:00,87.6,61.7,30.32,SSW,192,0.0,0.0,42,0.00,,SKC,0.00,VWS V14.01,2013-07-17 14:49:00,
2013-07-17 09:50:00,87.8,61.9,30.32,SSW,192,0.0,0.0,42,0.00,,SKC,0.00,VWS V14.01,2013-07-17 14:50:00,
2013-07-17 09:53:00,88.0,61.3,30.32,SSW,192,0.0,0.0,41,0.00,,SKC,0.00,VWS V14.01,2013-07-17 14:53:00,
2013-07-17 09:54:00,87.4,62.2,30.32,SSW,192,0.0,0.0,43,0.00,,SKC,0.00,VWS V14.01,2013-07-17 14:54:00,
2013-07-17 09:55:00,88.0,61.3,30.32,SSW,192,0.0,0.0,41,0.00,,SKC,0.00,VWS V14.01,2013-07-17 14:55:00,
2013-07-17 10:00:00,87.8,60.5,30.32,SSW,192,0.0,0.0,40,0.00,,SKC,0.00,VWS V14.01,2013-07-17 15:00:00,
2013-07-17 10:01:00,87.8,61.2,30.32,SSW,192,0.0,0.0,41,0.00,,SKC,0.00,VWS V14.01,2013-07-17 15:01:00,
2013-07-17 10:04:00,87.8,60.5,30.32,SSW,192,0.0,0.0,40,0.00,,SKC,0.00,VWS V14.01,2013-07-17 15:04:00,
2013-07-17 10:06:00,88.0,60.7,30.32,SSW,192,0.0,0.0,40,0.00,,SKC,0.00,VWS V14.01,2013-07-17 15:06:00,
2013-07-17 10:07:00,87.8,61.2,30.32,SSW,192,0.0,0.0,41,0.00,,SKC,0.00,VWS V14.01,2013-07-17 15:07:00,
2013-07-17 10:08:00,87.8,61.2,30.32,SSW,192,0.0,0.0,41,0.00,,SKC,0.00,VWS V14.01,2013-07-17 15:08:00,
2013-07-17 10:10:00,88.0,60.0,30.32,SSW,192,0.0,0.0,39,0.00,,SKC,0.00,VWS V14.01,2013-07-17 15:10:00,
2013-07-17 10:11:00,87.8,60.5,30.32,SSW,192,0.0,0.0,40,0.00,,SKC,0.00,VWS V14.01,2013-07-17 15:11:00,
2013-07-17 10:13:00,88.2,60.8,30.32,SSW,192,0.0,0.0,40,0.00,,SKC,0.00,VWS V14.01,2013-07-17 15:13:00,
2013-07-17 10:19:00,88.0,61.3,30.32,SSW,192,0.0,0.0,41,0.00,,SKC,0.00,VWS V14.01,2013-07-17 15:19:00,
2013-07-17 10:24:00,88.3,61.0,30.32,SSW,192,0.0,0.0,40,0.00,,SKC,0.00,VWS V14.01,2013-07-17 15:24:00,
2013-07-17 10:29:00,89.2,61.1,30.32,SSW,192,0.0,0.0,39,0.00,,SKC,0.00,VWS V14.01,2013-07-17 15:29:00,
2013-07-17 10:30:00,88.9,62.2,30.32,SSW,192,0.0,0.0,41,0.00,,SKC,0.00,VWS V14.01,2013-07-17 15:30:00,
2013-07-17 10:34:00,89.2,61.8,30.32,SSW,192,0.0,0.0,40,0.00,,SKC,0.00,VWS V14.01,2013-07-17 15:34:00,
2013-07-17 10:36:00,89.2,61.1,30.32,SSW,192,0.0,0.0,39,0.00,,SKC,0.00,VWS V14.01,2013-07-17 15:36:00,
2013-07-17 10:41:00,89.1,60.9,30.32,SSW,192,0.0,0.0,39,0.00,,SKC,0.00,VWS V14.01,2013-07-17 15:41:00,
2013-07-17 10:47:00,89.4,61.2,30.32,SSW,192,0.0,0.0,39,0.00,,SKC,0.00,VWS V14.01,2013-07-17 15:47:00,
2013-07-17 10:52:00,89.8,60.8,30.32,SSW,192,0.0,0.0,38,0.00,,SKC,0.00,VWS V14.01,2013-07-17 15:52:00,
2013-07-17 10:57:00,90.1,61.9,30.32,SSW,192,0.0,0.0,39,0.00,,SKC,0.00,VWS V14.01,2013-07-17 15:57:00,
2013-07-17 11:03:00,90.5,60.7,30.32,SSW,192,0.0,0.0,37,0.00,,SKC,0.00,VWS V14.01,2013-07-17 16:03:00,
2013-07-17 11:08:00,90.3,58.2,30.32,SSW,192,0.0,0.0,34,0.00,,SKC,0.00,VWS V14.01,2013-07-17 16:08:00,
2013-07-17 14:14:00,94.5,56.4,30.29,North,0,0.0,0.0,28,0.00,,SKC,0.00,VWS V14.01,2013-07-17 19:14:00,
2013-07-17 14:20:00,94.5,56.4,30.29,North,0,0.0,0.0,28,0.00,,SKC,0.00,VWS V14.01,2013-07-17 19:20:00,
2013-07-17 14:25:00,94.3,56.2,30.29,North,0,0.0,0.0,28,0.00,,SKC,0.00,VWS V14.01,2013-07-17 19:25:00,
2013-07-17 14:31:00,94.6,55.5,30.29,North,0,0.0,0.0,27,0.00,,SKC,0.00,VWS V14.01,2013-07-17 19:31:00,
2013-07-17 14:36:00,94.6,55.5,30.29,North,0,0.0,0.0,27,0.00,,SKC,0.00,VWS V14.01,2013-07-17 19:36:00,
2013-07-17 14:41:00,95.5,56.3,30.29,North,0,0.0,0.0,27,0.00,,SKC,0.00,VWS V14.01,2013-07-17 19:41:00,
2013-07-17 14:46:00,95.7,56.4,30.29,North,0,0.0,0.0,27,0.00,,SKC,0.00,VWS V14.01,2013-07-17 19:46:00,
2013-07-17 14:51:00,95.5,55.2,30.26,North,0,0.0,0.0,26,0.00,,SKC,0.00,VWS V14.01,2013-07-17 19:51:00,
2013-07-17 14:56:00,95.4,56.1,30.26,North,0,0.0,0.0,27,0.00,,SKC,0.00,VWS V14.01,2013-07-17 19:56:00,
2013-07-17 15:01:00,95.7,56.4,30.26,North,0,0.0,0.0,27,0.00,,SKC,0.00,VWS V14.01,2013-07-17 20:01:00,
2013-07-17 15:06:00,95.5,56.3,30.26,North,0,0.0,0.0,27,0.00,,SKC,0.00,VWS V14.01,2013-07-17 20:06:00,
2013-07-17 15:11:00,96.3,56.9,30.26,North,0,0.0,0.0,27,0.00,,SKC,0.00,VWS V14.01,2013-07-17 20:11:00,
2013-07-17 15:16:00,96.6,57.2,30.26,North,0,0.0,0.0,27,0.00,,SKC,0.00,VWS V14.01,2013-07-17 20:16:00,
2013-07-17 15:21:00,96.1,56.7,30.26,North,0,0.0,0.0,27,0.00,,SKC,0.00,VWS V14.01,2013-07-17 20:21:00,
2013-07-17 15:26:00,95.7,55.4,30.26,North,0,0.0,0.0,26,0.00,,SKC,0.00,VWS V14.01,2013-07-17 20:26:00,
2013-07-17 15:31:00,95.9,55.5,30.26,North,0,0.0,0.0,26,0.00,,SKC,0.00,VWS V14.01,2013-07-17 20:31:00,
2013-07-17 15:36:00,95.9,55.5,30.26,North,0,0.0,0.0,26,0.00,,SKC,0.00,VWS V14.01,2013-07-17 20:36:00,
2013-07-17 15:41:00,96.4,56.0,30.26,North,0,0.0,0.0,26,0.00,,SKC,0.00,VWS V14.01,2013-07-17 20:41:00,
2013-07-17 15:46:00,96.8,56.3,30.26,North,0,0.0,0.0,26,0.00,,SKC,0.00,VWS V14.01,2013-07-17 20:46:00,
2013-07-17 15:52:00,96.8,54.1,30.26,North,0,0.0,0.0,24,0.00,,SKC,0.00,VWS V14.01,2013-07-17 20:52:00,
2013-07-17 15:57:00,97.0,53.1,30.26,North,0,0.0,0.0,23,0.00,,SKC,0.00,VWS V14.01,2013-07-17 20:57:00,
2013-07-17 16:02:00,97.0,56.4,30.26,North,0,0.0,0.0,26,0.00,,SKC,0.00,VWS V14.01,2013-07-17 21:02:00,
2013-07-17 16:07:00,97.2,56.6,30.26,North,0,0.0,0.0,26,0.00,,SKC,0.00,VWS V14.01,2013-07-17 21:07:00,
2013-07-17 16:12:00,97.2,55.5,30.26,North,0,0.0,0.0,25,0.00,,SKC,0.00,VWS V14.01,2013-07-17 21:12:00,
2013-07-17 16:17:00,97.0,56.4,30.26,North,0,0.0,0.0,26,0.00,,SKC,0.00,VWS V14.01,2013-07-17 21:17:00,
2013-07-17 16:22:00,97.2,56.6,30.23,North,0,0.0,0.0,26,0.00,,SKC,0.00,VWS V14.01,2013-07-17 21:22:00,
2013-07-17 16:27:00,97.0,56.4,30.23,North,0,0.0,0.0,26,0.00,,SKC,0.00,VWS V14.01,2013-07-17 21:27:00,
2013-07-17 16:32:00,97.3,56.8,30.23,North,0,0.0,0.0,26,0.00,,SKC,0.00,VWS V14.01,2013-07-17 21:32:00,
2013-07-17 16:37:00,97.0,56.4,30.23,North,0,0.0,0.0,26,0.00,,SKC,0.00,VWS V14.01,2013-07-17 21:37:00,
2013-07-17 16:42:00,96.4,57.0,30.23,North,0,0.0,0.0,27,0.00,,SKC,0.00,VWS V14.01,2013-07-17 21:42:00,
2013-07-17 16:47:00,96.3,56.9,30.23,North,0,0.0,0.0,27,0.00,,SKC,0.00,VWS V14.01,2013-07-17 21:47:00,
2013-07-17 16:52:00,95.0,56.8,30.23,North,0,0.0,0.0,28,0.00,,SKC,0.00,VWS V14.01,2013-07-17 21:52:00,
2013-07-17 16:57:00,95.2,56.0,30.23,North,0,0.0,0.0,27,0.00,,SKC,0.00,VWS V14.01,2013-07-17 21:57:00,
2013-07-17 17:02:00,96.3,56.9,30.23,North,0,0.0,0.0,27,0.00,,SKC,0.00,VWS V14.01,2013-07-17 22:02:00,
2013-07-17 17:07:00,96.1,56.7,30.23,North,0,0.0,0.0,27,0.00,,SKC,0.00,VWS V14.01,2013-07-17 22:07:00,
2013-07-17 17:12:00,94.6,55.5,30.23,North,0,0.0,0.0,27,0.00,,SKC,0.00,VWS V14.01,2013-07-17 22:12:00,
2013-07-17 17:17:00,94.1,56.0,30.23,North,0,0.0,0.0,28,0.00,,SKC,0.00,VWS V14.01,2013-07-17 22:17:00,
2013-07-17 17:22:00,94.6,56.5,30.23,North,0,0.0,0.0,28,0.00,,SKC,0.00,VWS V14.01,2013-07-17 22:22:00,
2013-07-17 17:27:00,94.3,56.2,30.23,North,0,0.0,0.0,28,0.00,,SKC,0.00,VWS V14.01,2013-07-17 22:27:00,
2013-07-17 17:32:00,94.6,57.5,30.23,North,0,0.0,0.0,29,0.00,,SKC,0.00,VWS V14.01,2013-07-17 22:32:00,
2013-07-17 17:37:00,93.9,56.9,30.23,North,0,0.0,0.0,29,0.00,,SKC,0.00,VWS V14.01,2013-07-17 22:37:00,
2013-07-17 17:42:00,92.8,55.9,30.23,North,0,0.0,0.0,29,0.00,,SKC,0.00,VWS V14.01,2013-07-17 22:42:00,
2013-07-17 17:47:00,93.0,56.1,30.23,North,0,0.0,0.0,29,0.00,,SKC,0.00,VWS V14.01,2013-07-17 22:47:00,
2013-07-17 17:52:00,92.7,56.7,30.23,North,0,0.0,0.0,30,0.00,,SKC,0.00,VWS V14.01,2013-07-17 22:52:00,
2013-07-17 17:57:00,94.6,57.5,30.23,North,0,0.0,0.0,29,0.00,,SKC,0.00,VWS V14.01,2013-07-17 22:57:00,
2013-07-17 18:02:00,94.6,56.5,30.23,North,0,0.0,0.0,28,0.00,,SKC,0.00,VWS V14.01,2013-07-17 23:02:00,
2013-07-17 18:07:00,94.3,57.2,30.23,North,0,0.0,0.0,29,0.00,,SKC,0.00,VWS V14.01,2013-07-17 23:07:00,
2013-07-17 18:12:00,92.7,57.6,30.23,North,0,0.0,0.0,31,0.00,,SKC,0.00,VWS V14.01,2013-07-17 23:12:00,
2013-07-17 18:17:00,91.9,57.9,30.23,North,0,0.0,0.0,32,0.00,,SKC,0.00,VWS V14.01,2013-07-17 23:17:00,
2013-07-17 18:22:00,91.0,57.1,30.23,North,0,0.0,0.0,32,0.00,,SKC,0.00,VWS V14.01,2013-07-17 23:22:00,
2013-07-17 18:27:00,90.7,58.5,30.23,North,0,0.0,0.0,34,0.00,,SKC,0.00,VWS V14.01,2013-07-17 23:27:00,
2013-07-17 18:32:00,90.3,58.2,30.23,North,0,0.0,0.0,34,0.00,,SKC,0.00,VWS V14.01,2013-07-17 23:32:00,
2013-07-17 18:37:00,89.8,58.5,30.23,North,0,0.0,0.0,35,0.00,,SKC,0.00,VWS V14.01,2013-07-17 23:37:00,
2013-07-17 18:42:00,89.6,59.1,30.23,North,0,0.0,0.0,36,0.00,,SKC,0.00,VWS V14.01,2013-07-17 23:42:00,
2013-07-17 18:47:00,89.6,58.3,30.23,North,0,0.0,0.0,35,0.00,,SKC,0.00,VWS V14.01,2013-07-17 23:47:00,
2013-07-17 18:52:00,89.8,59.3,30.20,North,0,0.0,0.0,36,0.00,,SKC,0.00,VWS V14.01,2013-07-17 23:52:00,
2013-07-17 18:57:00,90.0,59.5,30.20,North,0,0.0,0.0,36,0.00,,SKC,0.00,VWS V14.01,2013-07-17 23:57:00,
2013-07-17 19:02:00,90.1,60.4,30.20,North,0,0.0,0.0,37,0.00,,SKC,0.00,VWS V14.01,2013-07-18 00:02:00,
2013-07-17 19:07:00,90.1,58.8,30.20,North,0,0.0,0.0,35,0.00,,SKC,0.00,VWS V14.01,2013-07-18 00:07:00,
2013-07-17 19:12:00,90.1,60.4,30.20,North,0,0.0,0.0,37,0.00,,SKC,0.00,VWS V14.01,2013-07-18 00:12:00,
2013-07-17 19:14:00,90.1,59.6,30.20,North,0,0.0,0.0,36,0.00,,SKC,0.00,VWS V14.01,2013-07-18 00:14:00,
2013-07-17 19:19:00,89.8,59.3,30.20,North,0,0.0,0.0,36,0.00,,SKC,0.00,VWS V14.01,2013-07-18 00:19:00,
2013-07-17 19:24:00,89.4,59.0,30.20,North,0,0.0,0.0,36,0.00,,SKC,0.00,VWS V14.01,2013-07-18 00:24:00,
2013-07-17 19:29:00,88.9,59.3,30.20,North,0,0.0,0.0,37,0.00,,SKC,0.00,VWS V14.01,2013-07-18 00:29:00,
2013-07-17 19:34:00,88.7,58.3,30.20,North,0,0.0,0.0,36,0.00,,SKC,0.00,VWS V14.01,2013-07-18 00:34:00,
2013-07-17 19:39:00,88.5,57.4,30.20,North,0,0.0,0.0,35,0.00,,SKC,0.00,VWS V14.01,2013-07-18 00:39:00,
2013-07-17 19:45:00,88.5,57.4,30.20,North,0,0.0,0.0,35,0.00,,SKC,0.00,VWS V14.01,2013-07-18 00:45:00,
2013-07-17 19:50:00,88.3,58.8,30.20,North,0,0.0,0.0,37,0.00,,SKC,0.00,VWS V14.01,2013-07-18 00:50:00,
2013-07-17 19:55:00,87.4,59.5,30.20,North,0,0.0,0.0,39,0.00,,SKC,0.00,VWS V14.01,2013-07-18 00:55:00,
2013-07-17 20:01:00,87.1,59.8,30.20,North,0,0.0,0.0,40,0.00,,SKC,0.00,VWS V14.01,2013-07-18 01:01:00,
2013-07-17 20:06:00,86.4,59.2,30.20,North,0,0.0,0.0,40,0.00,,SKC,0.00,VWS V14.01,2013-07-18 01:06:00,
2013-07-17 20:11:00,85.6,59.3,30.20,North,0,0.0,0.0,41,0.00,,SKC,0.00,VWS V14.01,2013-07-18 01:11:00,
2013-07-17 20:17:00,84.7,59.1,30.20,North,0,0.0,0.0,42,0.00,,SKC,0.00,VWS V14.01,2013-07-18 01:17:00,
2013-07-17 20:22:00,84.2,58.6,30.20,North,0,0.0,0.0,42,0.00,,SKC,0.00,VWS V14.01,2013-07-18 01:22:00,
2013-07-17 20:27:00,84.0,59.1,30.20,North,0,0.0,0.0,43,0.00,,SKC,0.00,VWS V14.01,2013-07-18 01:27:00,
2013-07-17 20:32:00,83.7,58.8,30.20,SSE,166,0.0,0.0,43,0.00,,SKC,0.00,VWS V14.01,2013-07-18 01:32:00,
2013-07-17 20:37:00,83.5,59.9,30.20,West,264,7.2,7.2,45,0.00,,SKC,0.00,VWS V14.01,2013-07-18 01:37:00,
2013-07-17 20:42:00,83.1,59.6,30.20,SSW,202,0.0,0.0,45,0.00,,SKC,0.00,VWS V14.01,2013-07-18 01:42:00,
2013-07-17 20:47:00,82.9,59.4,30.20,SSW,203,0.0,0.0,45,0.00,,SKC,0.00,VWS V14.01,2013-07-18 01:47:00,
2013-07-17 20:52:00,82.6,59.1,30.20,SSW,203,0.0,0.0,45,0.00,,SKC,0.00,VWS V14.01,2013-07-18 01:52:00,
2013-07-17 20:57:00,82.2,60.6,30.20,SSW,203,0.0,0.0,48,0.00,,SKC,0.00,VWS V14.01,2013-07-18 01:57:00,
2013-07-17 21:02:00,81.9,60.8,30.20,SSW,203,0.0,0.0,49,0.00,,SKC,0.00,VWS V14.01,2013-07-18 02:02:00,
2013-07-17 21:08:00,81.9,60.8,30.20,SSW,203,0.0,0.0,49,0.00,,SKC,0.00,VWS V14.01,2013-07-18 02:08:00,
2013-07-17 21:13:00,82.0,61.0,30.20,SSW,203,0.0,0.0,49,0.00,,SKC,0.00,VWS V14.01,2013-07-18 02:13:00,
2013-07-17 21:18:00,82.2,60.6,30.20,SSW,203,0.0,0.0,48,0.00,,SKC,0.00,VWS V14.01,2013-07-18 02:18:00,
2013-07-17 21:23:00,82.2,60.6,30.20,SSW,203,0.0,0.0,48,0.00,,SKC,0.00,VWS V14.01,2013-07-18 02:23:00,
2013-07-17 21:28:00,82.0,60.4,30.20,SSW,203,0.0,0.0,48,0.00,,SKC,0.00,VWS V14.01,2013-07-18 02:28:00,
2013-07-17 21:33:00,82.0,60.4,30.20,SSW,203,0.0,0.0,48,0.00,,SKC,0.00,VWS V14.01,2013-07-18 02:33:00,
2013-07-17 21:38:00,81.7,60.7,30.20,SSW,203,0.0,0.0,49,0.00,,SKC,0.00,VWS V14.01,2013-07-18 02:38:00,
2013-07-17 21:43:00,81.5,61.1,30.20,SSW,203,0.0,0.0,50,0.00,,SKC,0.00,VWS V14.01,2013-07-18 02:43:00,
2013-07-17 21:48:00,81.1,60.8,30.20,SSW,203,0.0,0.0,50,0.00,,SKC,0.00,VWS V14.01,2013-07-18 02:48:00,
2013-07-17 21:53:00,80.8,60.4,30.20,SSW,203,0.0,0.0,50,0.00,,SKC,0.00,VWS V14.01,2013-07-18 02:53:00,
2013-07-17 21:58:00,80.8,61.0,30.20,SSW,203,0.0,0.0,51,0.00,,SKC,0.00,VWS V14.01,2013-07-18 02:58:00,
2013-07-17 22:04:00,80.6,60.3,30.20,SSW,203,0.0,0.0,50,0.00,,SKC,0.00,VWS V14.01,2013-07-18 03:04:00,
2013-07-17 22:10:00,80.4,60.7,30.20,SSW,203,0.0,0.0,51,0.00,,SKC,0.00,VWS V14.01,2013-07-18 03:10:00,
2013-07-17 22:15:00,80.4,61.2,30.20,SSW,203,0.0,0.0,52,0.00,,SKC,0.00,VWS V14.01,2013-07-18 03:15:00,
2013-07-17 22:20:00,80.2,61.0,30.20,SSW,203,0.0,0.0,52,0.00,,SKC,0.00,VWS V14.01,2013-07-18 03:20:00,
2013-07-17 22:25:00,80.2,61.6,30.20,SSW,200,0.0,0.0,53,0.00,,SKC,0.00,VWS V14.01,2013-07-18 03:25:00,
2013-07-17 22:30:00,80.2,61.6,30.20,SSW,200,0.0,0.0,53,0.00,,SKC,0.00,VWS V14.01,2013-07-18 03:30:00,
2013-07-17 22:35:00,80.4,61.2,30.20,South,183,4.0,4.0,52,0.00,,SKC,0.00,VWS V14.01,2013-07-18 03:35:00,
2013-07-17 22:40:00,80.6,61.4,30.20,South,189,0.0,0.0,52,0.00,,SKC,0.00,VWS V14.01,2013-07-18 03:40:00,
2013-07-17 22:46:00,80.6,61.4,30.20,SSE,160,0.0,0.0,52,0.00,,SKC,0.00,VWS V14.01,2013-07-18 03:46:00,
2013-07-17 22:51:00,80.4,61.7,30.20,SSE,154,0.0,0.0,53,0.00,,SKC,0.00,VWS V14.01,2013-07-18 03:51:00,
2013-07-17 22:57:00,80.1,61.4,30.20,South,180,5.6,5.6,53,0.00,,SKC,0.00,VWS V14.01,2013-07-18 03:57:00,
2013-07-17 23:02:00,79.9,62.3,30.20,South,180,0.0,0.0,55,0.00,,SKC,0.00,VWS V14.01,2013-07-18 04:02:00,
2013-07-17 23:03:00,79.7,62.1,30.20,South,180,0.0,0.0,55,0.00,,SKC,0.00,VWS V14.01,2013-07-18 04:03:00,
2013-07-17 23:06:00,79.7,62.6,30.20,South,180,0.0,0.0,56,0.00,,SKC,0.00,VWS V14.01,2013-07-18 04:06:00,
2013-07-17 23:12:00,79.5,63.0,30.20,South,186,0.0,0.0,57,0.00,,SKC,0.00,VWS V14.01,2013-07-18 04:12:00,
2013-07-17 23:13:00,79.5,63.0,30.20,South,181,0.0,0.0,57,0.00,,SKC,0.00,VWS V14.01,2013-07-18 04:13:00,
2013-07-17 23:18:00,79.3,62.3,30.20,South,180,0.0,0.0,56,0.00,,SKC,0.00,VWS V14.01,2013-07-18 04:18:00,
2013-07-17 23:23:00,79.2,63.6,30.20,South,176,0.0,0.0,59,0.00,,SKC,0.00,VWS V14.01,2013-07-18 04:23:00,
2013-07-17 23:28:00,79.0,63.4,30.20,South,175,0.0,0.0,59,0.00,,SKC,0.00,VWS V14.01,2013-07-18 04:28:00,
2013-07-17 23:33:00,78.8,63.8,30.20,South,177,0.0,0.0,60,0.00,,SKC,0.00,VWS V14.01,2013-07-18 04:33:00,
2013-07-17 23:38:00,78.6,63.6,30.20,SSE,165,0.0,0.0,60,0.00,,SKC,0.00,VWS V14.01,2013-07-18 04:38:00,
2013-07-17 23:43:00,78.4,63.9,30.20,South,172,0.0,0.0,61,0.00,,SKC,0.00,VWS V14.01,2013-07-18 04:43:00,
2013-07-17 23:48:00,78.4,64.3,30.20,SSE,159,0.0,0.0,62,0.00,,SKC,0.00,VWS V14.01,2013-07-18 04:48:00,
2013-07-17 23:53:00,78.3,63.7,30.20,SSE,160,0.0,0.0,61,0.00,,SKC,0.00,VWS V14.01,2013-07-18 04:53:00,
2013-07-17 23:58:00,78.3,64.2,30.20,South,171,0.0,0.0,62,0.00,,SKC,0.00,VWS V14.01,2013-07-18 04:58:00,